Simultaneous Nadir Overpasses (SNOs) Predictions

Prediction of SNOs between LANDSAT-8 and METOP-B Satellite Orbit:

Table of predicted SNOs for the next 14.0 days since TLE Epoch: 7/18/2020
Index Date (LANDSAT-8) Time (LANDSAT-8) Lat,Lon (LANDSAT-8) SZA (LANDSAT-8 ) Date (METOP-B) Time (METOP-B) Lat,Lon (METOP-B) SZA (METOP-B ) Distance(km) Time Diff (sec)
1 07/20/2020 19:46:45 -81.15, 103.75 117.27 07/20/2020 19:45:32 -81.15, 103.58 117.32 2.95 73
2 07/20/2020 20:36:10 81.18, -88.14 62.81 07/20/2020 20:36:10 81.18, -88.10 62.81 0.68 0
3 07/20/2020 21:25:36 -81.19, 79.80 117.14 07/20/2020 21:26:49 -81.20, 79.96 117.09 2.78 73
4 07/23/2020 15:21:00 -81.15, 170.26 116.70 07/23/2020 15:19:51 -81.16, 170.38 116.71 2.22 69
5 07/23/2020 16:10:25 81.18, -21.66 63.38 07/23/2020 16:10:30 81.18, -21.68 63.38 0.35 5
6 07/26/2020 10:55:16 -81.16,-123.25 116.08 07/26/2020 10:54:12 -81.16,-123.20 116.10 0.84 64
7 07/26/2020 11:44:41 81.18, 44.81 63.99 07/26/2020 11:44:51 81.18, 44.74 63.99 1.28 10
8 07/29/2020 06:29:32 -81.16, -56.77 115.43 07/29/2020 06:28:33 -81.16, -56.79 115.45 0.50 59
9 07/29/2020 07:18:57 81.18, 111.26 64.64 07/29/2020 07:19:12 81.18, 111.14 64.64 2.15 15
